• In Moldova, Republic
  • List of Countries
  • For 7 days
  • Water Temperature
  • Satellite Maps
  • Weather Map
  • Weather Widgets
  • user-avatar
    Login

    Hourly Weather Oran

    Today, 30 May, Tuesday

    Time Temperature Precipitation Wind Pressure Humidity
    00:00 +20°C° 0 mm 3 mps 751 mmHg 69%
    01:00 +20°C° 0.1 mm 3 mps 751 mmHg 70%
    02:00 +19°C° 0.1 mm 3 mps 751 mmHg 71%
    03:00 +19°C° 0.1 mm 3 mps 751 mmHg 71%
    04:00 +20°C° 0 mm 4 mps 751 mmHg 69%
    05:00 +20°C° 0 mm 4 mps 751 mmHg 66%
    06:00 +21°C° 0 mm 4 mps 751 mmHg 63%
    07:00 +23°C° 0 mm 4 mps 751 mmHg 57%
    08:00 +26°C° 0 mm 4 mps 751 mmHg 50%
    09:00 +27°C° 0 mm 4 mps 751 mmHg 43%
    10:00 +28°C° 0 mm 4 mps 751 mmHg 42%
    11:00 +29°C° 0 mm 4 mps 751 mmHg 40%
    12:00 +30°C° 0 mm 4 mps 751 mmHg 39%
    13:00 +30°C° 0 mm 4 mps 750 mmHg 39%
    14:00 +30°C° 0 mm 4 mps 750 mmHg 39%
    15:00 +30°C° 0 mm 3 mps 750 mmHg 39%
    16:00 +29°C° 0.3 mm 3 mps 750 mmHg 42%
    17:00 +28°C° 0.3 mm 3 mps 750 mmHg 46%
    18:00 +27°C° 0.3 mm 3 mps 750 mmHg 50%
    19:00 +25°C° 0.6 mm 2 mps 750 mmHg 58%
    20:00 +24°C° 0.6 mm 2 mps 751 mmHg 67%
    21:00 +21°C° 0.6 mm 2 mps 752 mmHg 75%
    22:00 +21°C° 0.1 mm 2 mps 752 mmHg 76%
    23:00 +22°C° 0.1 mm 1 mps 752 mmHg 77%

    Tomorrow, 31 May, Wednesday

    Time Temperature Precipitation Wind Pressure Humidity
    00:00 +22°C° 0.1 mm 1 mps 752 mmHg 79%
    01:00 +21°C° 0 mm 2 mps 752 mmHg 80%
    02:00 +20°C° 0 mm 2 mps 752 mmHg 81%
    03:00 +20°C° 0 mm 2 mps 751 mmHg 83%
    04:00 +21°C° 0.2 mm 2 mps 752 mmHg 81%
    05:00 +21°C° 0.2 mm 2 mps 752 mmHg 79%
    06:00 +21°C° 0.2 mm 2 mps 752 mmHg 78%
    07:00 +24°C° 0.1 mm 2 mps 752 mmHg 73%
    08:00 +25°C° 0.1 mm 3 mps 753 mmHg 68%
    09:00 +26°C° 0.1 mm 3 mps 753 mmHg 63%
    10:00 +28°C° 0.1 mm 4 mps 753 mmHg 56%
    11:00 +29°C° 0.1 mm 5 mps 753 mmHg 49%
    12:00 +32°C° 0.1 mm 6 mps 752 mmHg 43%
    13:00 +32°C° 0 mm 6 mps 752 mmHg 39%
    14:00 +33°C° 0 mm 6 mps 752 mmHg 36%
    15:00 +34°C° 0 mm 7 mps 751 mmHg 33%
    16:00 +33°C° 0 mm 7 mps 751 mmHg 36%
    17:00 +32°C° 0 mm 7 mps 751 mmHg 39%
    18:00 +30°C° 0 mm 7 mps 751 mmHg 42%
    19:00 +29°C° 0 mm 6 mps 751 mmHg 49%
    20:00 +27°C° 0 mm 6 mps 751 mmHg 56%
    21:00 +25°C° 0 mm 5 mps 752 mmHg 63%
    22:00 +25°C° 0 mm 5 mps 752 mmHg 64%
    23:00 +25°C° 0 mm 4 mps 752 mmHg 65%

    Day after tomorrow, 1 June, Thursday

    Time Temperature Precipitation Wind Pressure Humidity
    00:00 +25°C° 0 mm 4 mps 752 mmHg 67%
    01:00 +23°C° 0 mm 4 mps 752 mmHg 70%
    02:00 +23°C° 0 mm 4 mps 751 mmHg 73%
    03:00 +22°C° 0 mm 4 mps 751 mmHg 76%
    04:00 +23°C° 0 mm 4 mps 751 mmHg 74%
    05:00 +23°C° 0 mm 4 mps 751 mmHg 73%
    06:00 +24°C° 0 mm 3 mps 751 mmHg 71%
    07:00 +26°C° 0 mm 4 mps 752 mmHg 63%
    08:00 +28°C° 0 mm 4 mps 752 mmHg 54%
    09:00 +30°C° 0 mm 4 mps 752 mmHg 45%
    10:00 +33°C° 0 mm 4 mps 752 mmHg 40%
    11:00 +34°C° 0 mm 5 mps 752 mmHg 35%
    12:00 +36°C° 0 mm 6 mps 752 mmHg 30%
    13:00 +36°C° 0 mm 6 mps 751 mmHg 31%
    14:00 +36°C° 0 mm 6 mps 751 mmHg 32%
    15:00 +35°C° 0 mm 7 mps 750 mmHg 33%
    16:00 +34°C° 0 mm 6 mps 750 mmHg 37%
    17:00 +33°C° 0 mm 6 mps 750 mmHg 41%
    18:00 +32°C° 0 mm 6 mps 750 mmHg 45%
    19:00 +29°C° 0.1 mm 5 mps 750 mmHg 51%
    20:00 +27°C° 0.1 mm 5 mps 751 mmHg 58%
    21:00 +26°C° 0.1 mm 4 mps 751 mmHg 64%
    22:00 +25°C° 0.1 mm 4 mps 751 mmHg 65%
    23:00 +25°C° 0.1 mm 3 mps 751 mmHg 67%

    2 June, Friday

    Time Temperature Precipitation Wind Pressure Humidity
    00:00 +25°C° 0.1 mm 3 mps 751 mmHg 69%
    01:00 +25°C° 0 mm 3 mps 751 mmHg 69%
    02:00 +25°C° 0 mm 3 mps 751 mmHg 70%
    03:00 +24°C° 0 mm 3 mps 750 mmHg 70%
    04:00 +25°C° 0 mm 3 mps 750 mmHg 69%
    05:00 +25°C° 0 mm 3 mps 750 mmHg 68%
    06:00 +25°C° 0 mm 2 mps 750 mmHg 67%
    07:00 +28°C° 0 mm 3 mps 750 mmHg 59%
    08:00 +30°C° 0 mm 3 mps 751 mmHg 50%
    09:00 +33°C° 0 mm 3 mps 751 mmHg 41%
    10:00 +35°C° 0 mm 3 mps 751 mmHg 39%
    11:00 +36°C° 0 mm 4 mps 750 mmHg 36%
    12:00 +38°C° 0 mm 4 mps 750 mmHg 33%
    13:00 +37°C° 0 mm 5 mps 750 mmHg 34%
    14:00 +37°C° 0 mm 5 mps 749 mmHg 35%
    15:00 +37°C° 0 mm 5 mps 749 mmHg 36%
    16:00 +35°C° 0.2 mm 5 mps 749 mmHg 39%
    17:00 +34°C° 0.2 mm 5 mps 749 mmHg 43%
    18:00 +33°C° 0.2 mm 4 mps 748 mmHg 46%
    19:00 +30°C° 0.2 mm 3 mps 749 mmHg 51%
    20:00 +29°C° 0.2 mm 3 mps 749 mmHg 56%
    21:00 +27°C° 0.2 mm 2 mps 749 mmHg 60%
    22:00 +27°C° 0.4 mm 2 mps 749 mmHg 63%
    23:00 +26°C° 0.4 mm 2 mps 749 mmHg 66%

    3 June, Saturday

    Time Temperature Precipitation Wind Pressure Humidity
    00:00 +26°C° 0.4 mm 2 mps 749 mmHg 69%
    01:00 +25°C° 0.4 mm 2 mps 749 mmHg 71%
    02:00 +25°C° 0.4 mm 2 mps 749 mmHg 73%
    03:00 +25°C° 0.4 mm 2 mps 749 mmHg 75%
    04:00 +25°C° 0.2 mm 2 mps 749 mmHg 75%
    05:00 +25°C° 0.2 mm 2 mps 749 mmHg 76%
    06:00 +25°C° 0.2 mm 2 mps 749 mmHg 76%
    07:00 +26°C° 0.1 mm 2 mps 749 mmHg 72%
    08:00 +27°C° 0.1 mm 2 mps 750 mmHg 67%
    09:00 +28°C° 0.1 mm 2 mps 750 mmHg 62%
    10:00 +28°C° 0.2 mm 3 mps 750 mmHg 62%
    11:00 +28°C° 0.2 mm 4 mps 750 mmHg 62%
    12:00 +29°C° 0.2 mm 5 mps 751 mmHg 62%
    13:00 +28°C° 0.5 mm 4 mps 751 mmHg 65%
    14:00 +27°C° 0.5 mm 4 mps 751 mmHg 69%
    15:00 +26°C° 0.5 mm 3 mps 751 mmHg 72%
    16:00 +26°C° 0 mm 3 mps 750 mmHg 73%
    17:00 +26°C° 0 mm 3 mps 750 mmHg 73%
    18:00 +26°C° 0 mm 4 mps 750 mmHg 73%
    19:00 +25°C° 0 mm 4 mps 751 mmHg 74%
    20:00 +25°C° 0 mm 4 mps 751 mmHg 76%
    21:00 +25°C° 0 mm 4 mps 752 mmHg 77%
    22:00 +23°C° 0 mm 4 mps 752 mmHg 76%
    23:00 +23°C° 0 mm 4 mps 751 mmHg 75%

    4 June, Sunday

    Time Temperature Precipitation Wind Pressure Humidity
    00:00 +23°C° 0 mm 4 mps 751 mmHg 74%
    01:00 +22°C° 0 mm 4 mps 751 mmHg 75%
    02:00 +22°C° 0 mm 4 mps 751 mmHg 76%
    03:00 +21°C° 0 mm 4 mps 751 mmHg 77%
    04:00 +22°C° 0 mm 4 mps 751 mmHg 74%
    05:00 +22°C° 0 mm 4 mps 751 mmHg 70%
    06:00 +23°C° 0 mm 4 mps 751 mmHg 66%
    07:00 +25°C° 0 mm 5 mps 752 mmHg 58%
    08:00 +27°C° 0 mm 5 mps 752 mmHg 49%
    09:00 +29°C° 0 mm 5 mps 752 mmHg 41%
    10:00 +29°C° 0 mm 6 mps 752 mmHg 39%
    11:00 +30°C° 0 mm 6 mps 752 mmHg 37%
    12:00 +32°C° 0 mm 6 mps 752 mmHg 34%
    13:00 +32°C° 0 mm 6 mps 751 mmHg 34%
    14:00 +32°C° 0 mm 5 mps 751 mmHg 33%
    15:00 +32°C° 0 mm 5 mps 751 mmHg 33%
    16:00 +30°C° 0 mm 4 mps 751 mmHg 34%
    17:00 +29°C° 0 mm 3 mps 751 mmHg 35%
    18:00 +28°C° 0 mm 3 mps 751 mmHg 35%
    19:00 +26°C° 0 mm 2 mps 752 mmHg 41%
    20:00 +25°C° 0 mm 1 mps 752 mmHg 47%
    21:00 +23°C° 0 mm 1 mps 753 mmHg 52%
    22:00 +22°C° 0 mm 1 mps 752 mmHg 53%
    23:00 +22°C° 0 mm 1 mps 752 mmHg 54%
    Show more